Seattle, WA
on Thursday, November 15, 2012

Thursday
Previous Day Next Day
Daily Summary
 ActualAverageRecord
Temperature
Mean Temperature °F 46°F  
Max Temperature 49°F 51°F 62°F (2001)
Min Temperature 37°F 40°F 6°F (1955)
Degree Days
Heating Degree Days 22 19  
Month to date heating degree days 248 268  
Since 1 July heating degree days 741 865  
Cooling Degree Days 0 0  
Month to date cooling degree days 0 0  
Year to date cooling degree days 177 189  
Moisture
Dew Point 38°F   
Average Humidity 82    
Maximum Humidity 93    
Minimum Humidity 71    
Precipitation
Precipitation 0.00 in 0.23 in 1.09 in (2007)
Month to date precipitation 1.96 3.19  
Year to date precipitation 35.09 28.76  
Snow
Snow 0.00 in in 0.20 in (1975)
Month to date snowfall 0.0  
Since 1 July snowfall 0.0  
Snow Depth 0.00 in   
Wind
Wind Speed 5 mph   
Max Wind Speed 13 mph   
Max Gust Speed 15 mph   
Visibility 4 miles   
Events Fog   

Key: T is trace of precipitation, MM is missing value
Source: NWS Daily Summary
Time(PST)TemperatureDew PointHumidity Pressure Visibility Wind DirectionWind SpeedGust SpeedPrecipitationEvents Conditions
12:29 AM 37.4°F 35.6°F 93% 30.26 in 6.0 miles North 6.9 mph - 0.00 in   Partly Cloudy
12:36 AM 37.4°F 35.6°F 93% 30.25 in 0.5 miles North 5.8 mph - 0.00 in Fog Fog
12:53 AM 39.0°F 37.0°F 93% 30.28 in 0.5 miles North 6.9 mph - N/A Fog Fog
1:53 AM 41.0°F 39.0°F 93% 30.27 in 0.1 miles NNE 5.8 mph - N/A Fog Fog
2:53 AM 41.0°F 39.9°F 96% 30.25 in 0.1 miles NNE 5.8 mph - N/A Fog Fog
3:38 AM 41.0°F 39.2°F 93% 30.20 in 0.1 miles North 8.1 mph - N/A Fog Fog
3:53 AM 41.0°F 39.0°F 93% 30.22 in 0.1 miles North 8.1 mph - N/A Fog Fog
4:02 AM 39.2°F 39.2°F 100% 30.20 in 0.1 miles North 6.9 mph - N/A Fog Fog
4:39 AM 39.2°F 39.2°F 100% 30.19 in 0.5 miles North 8.1 mph - N/A Fog Fog
4:53 AM 41.0°F 39.0°F 93% 30.21 in 0.5 miles North 10.4 mph - N/A Fog Fog
5:04 AM 39.2°F 39.2°F 100% 30.18 in 0.5 miles North 8.1 mph - N/A   Mostly Cloudy
5:20 AM 39.2°F 37.4°F 93% 30.18 in 3.0 miles North 5.8 mph - N/A Fog Patches of Fog
5:27 AM 39.2°F 37.4°F 93% 30.18 in 3.0 miles North 6.9 mph - N/A Fog Patches of Fog
5:50 AM 39.2°F 37.4°F 93% 30.17 in 0.5 miles North 8.1 mph - N/A   Mostly Cloudy
5:53 AM 39.9°F 37.9°F 93% 30.19 in 0.5 miles North 9.2 mph - N/A   Mostly Cloudy
6:53 AM 39.0°F 37.0°F 93% 30.18 in 0.5 miles North 9.2 mph - N/A   Mist
7:09 AM 39.2°F 37.4°F 93% 30.15 in 0.5 miles NNE 10.4 mph - N/A   Mostly Cloudy
7:26 AM 39.2°F 37.4°F 93% 30.15 in 3.0 miles North 11.5 mph - N/A   Partly Cloudy
7:53 AM 39.9°F 37.0°F 89% 30.17 in 3.0 miles North 9.2 mph - N/A   Mostly Cloudy
7:59 AM 39.2°F 37.4°F 93% 30.14 in 0.2 miles North 10.4 mph - N/A   Overcast
8:53 AM 39.9°F 37.9°F 93% 30.15 in 0.5 miles North 9.2 mph - N/A   Mostly Cloudy
9:39 AM 42.8°F 37.4°F 81% 30.11 in 5.0 miles North 9.2 mph - N/A   Scattered Clouds
9:53 AM 42.1°F 39.0°F 89% 30.13 in 6.0 miles North 9.2 mph - N/A   Scattered Clouds
10:53 AM 46.9°F 39.9°F 77% 30.10 in 7.0 miles NW 5.8 mph - N/A Fog Patches of Fog
11:53 AM 46.9°F 39.9°F 77% 30.07 in 10.0 miles WNW 4.6 mph - N/A   Partly Cloudy
12:53 PM 48.0°F 39.9°F 74% 30.06 in 10.0 miles WNW 4.6 mph - N/A   Partly Cloudy
1:53 PM 48.0°F 41.0°F 77% 30.04 in 10.0 miles West 6.9 mph - N/A   Partly Cloudy
2:53 PM 48.0°F 39.9°F 74% 30.03 in 10.0 miles Calm Calm - N/A   Partly Cloudy
3:53 PM 46.9°F 39.9°F 77% 30.03 in 10.0 miles WSW 4.6 mph - N/A   Partly Cloudy
4:53 PM 44.1°F 39.0°F 82% 30.02 in 10.0 miles Calm Calm - N/A   Scattered Clouds
5:53 PM 43.0°F 39.0°F 86% 30.01 in 10.0 miles Calm Calm - N/A   Scattered Clouds
6:53 PM 41.0°F 37.9°F 89% 30.01 in 10.0 miles SE 3.5 mph - N/A   Scattered Clouds
7:53 PM 42.1°F 37.9°F 85% 30.00 in 9.0 miles ESE 4.6 mph - N/A   Scattered Clouds
8:53 PM 39.9°F 37.0°F 89% 29.99 in 10.0 miles SSE 3.5 mph - N/A Fog Patches of Fog
9:53 PM 39.0°F 37.0°F 93% 29.98 in 6.0 miles Calm Calm - N/A Fog Scattered Clouds
10:32 PM 39.2°F 37.4°F 93% 29.95 in 0.2 miles SE 3.5 mph - N/A Fog Fog
10:41 PM 39.2°F 37.4°F 93% 29.95 in 0.2 miles SSE 3.5 mph - N/A Fog Fog
10:53 PM 39.9°F 37.9°F 93% 29.98 in 0.2 miles SE 3.5 mph - N/A Fog Fog
11:45 PM 39.2°F 39.2°F 100% 29.94 in 0.2 miles SSE 4.6 mph - N/A Fog Fog
11:53 PM 39.9°F 39.0°F 97% 29.97 in 0.2 miles SE 3.5 mph - N/A Fog Fog
Moon Phase
Nov. 15 Nov. 20 Nov. 28 Dec. 06 Dec. 13
Sunrise:07:14 AM (PST) Moon Rise:09:21 AM (PST)11/15
Sunset:04:32 PM (PST) Moon Set:06:25 PM (PST)11/15

Copyright © 2014 The Weather Underground, Inc.